DELTA 1 DEB, 7088

Orbit data source: Space-Track

DELTA 1 DEB, 7088 is space debris in SSO originally from a launch on Tue, 06 Nov 1973 UTC launched from the Air Force Western Test Range (AFWTR). Debris objects in space refer to the collection of defunct objects orbiting the Earth. Examples of debris include non-operational satellites, rocket bodies, and fragments generated from explosions, collisions, or faulty payload assembly.

Loading next visibility...
Identifier
7088, 1973-086CG
Orbit
SSO
Country
Flag of USUS
Related business
Manufacturer
Unknown
Mission
Spacecraft
Bus & Motor
Unknown
Mass
Unknown
Launch date (UTC)
1973-11-06 (52 years ago)
Launch vehicle
Unknown
Launch site
Air Force Western Test Range (AFWTR)
Object type
Payload
Rocket body
Debris
Shape & HBR
Unknown shape, 0.1 m
Radar Cross Section
Small (<0.1 m²)

Expand to show TLE details & history
Last TLE update: 21 hours ago

TLE from 21 hours ago
0 DELTA 1 DEB
1 07088U 73086CG  25292.25828941  .00000037  00000-0  32843-3 0  9999
2 07088 102.4010 190.7355 0255068 222.2358 260.0008 12.84286500421619
Epoch: 2025-10-19T06:11Z
TLE epoch observation values (Epoch: 2025-10-19T06:11:56.205Z)
Latitude
58.42505°
Longitude
-89.37202°
Altitude
1,372.883 km
Speed
7.16 km/s
True Right ascension
02h 06m 21s
True Declination
58° 17' 01"
Sunlit
Object was in full shadow at epoch
Visualization orbit readout
Latitude
Unknown
Longitude
Unknown
Altitude
Unknown
Speed
Unknown
Apparent Right ascension
Unknown
Apparent Declination
Unknown
Sunlit
N/A
Visualization observer readout
Local Sidereal Time
21:41:43
Azimuth
Unknown
Elevation
Unknown
Doppler factor
Unknown
Orbital elements
Apogee altitude
1,518.224 km
Perigee altitude
1,125.422 km
Semi-major axis
7,699.96 km
Eccentricity
0.02551
Inclination
102.401°
RAAN
190.7355°
Arg. of periapsis
222.2358°
True anomaly
257.13937°
Mean anomaly
260.0008°
Eccentric anomaly
258.56836°
Mean motion
3.21226 °/min
Orbital period
112.07 mins
BSTAR
0.00032843
Loading maneuver chart data...
Computing Atmospheric mass density...
Loading historical data...
Loading historical data...
Loading historical data...
Loading historical data...
Loading historical data...
Loading historical data...
Loading historical data...

Documentation

Showing up to 5 results
|